Regional Weather Roundup
Issued by NWS

Home | Current Version | Previous Version | Text Only | Print | Product List | Glossary On
Versions: 1 2 3 4 5 6 7 8 9 10 11 12 13 14 15 16 17 18 19 20 21 22 23 24 25 26 27
000
ASUS45 KTFX 261610
RWRMT
MONTANA REGIONAL WEATHER ROUNDUP
NATIONAL WEATHER SERVICE GREAT FALLS MT
1000 AM MDT TUE SEP 26 2017

NOTE: "FAIR" INDICATES FEW OR NO CLOUDS BELOW 12000 FEET WITH NO
SIGNIFICANT WEATHER AND/OR OBSTRUCTIONS TO VISIBILITY.

MTZ001>007-043-261700-
WEST OF THE DIVIDE

CITY           SKY/WX    TMP DP  RH WIND       PRES   REMARKS
KALISPELL      SUNNY     49  47  93 CALM      30.21R
MISSOULA       CLOUDY    51  47  86 CALM      30.23R
BUTTE          CLOUDY    44  39  82 CALM      30.25R
MULLAN PASS    SUNNY     44  38  79 NW5       30.25R
ANACONDA         N/A     46  43  87 CALM      30.24R
DEER LODGE       N/A     46  45  93 CALM      30.26R
EUREKA           N/A     48  43  81 MISG      30.22R
HAMILTON         N/A     50  43  76 SW6       30.24R
LIBBY            N/A     48  45  87 CALM      30.21R VSB 1/2
RONAN            N/A     54  48  80 CALM      30.23R
$$

MTZ008-052>055-261700-
SOUTHWEST MONTANA

CITY           SKY/WX    TMP DP  RH WIND       PRES   REMARKS
BOZEMAN        CLOUDY    51  41  68 SW5       30.23R
DILLON         CLOUDY    48  38  68 SW8       30.23R
W YELLOWSTONE  CLOUDY    41  30  65 CALM      30.26R
ENNIS          CLOUDY    46  41  81 CALM      30.28R
THREE FORKS      N/A     51  43  74 CALM      30.19R
$$

MTZ009-010-012-014-046-048-049-054-261700-
EAST SLOPES AND CENTRAL MONTANA

CITY           SKY/WX    TMP DP  RH WIND       PRES   REMARKS
CUT BANK       MOSUNNY   56  43  61 W10       30.13R
GREAT FALLS    CLOUDY    55  40  56 SW12      30.15R
MALMSTROM AFB  CLOUDY    55  41  60 SW15      30.16R
HELENA         MOSUNNY   50  45  83 CALM      30.20R
BOWMANS CRNR     N/A     48  42  79 S10       30.16R
CHOTEAU          N/A     57  41  54 S6        30.16R
FAIRFIELD        N/A     54  39  58 SW3       30.14R
POWER            N/A     55  40  57 SW12      30.14R
RAYNESFORD     CLOUDY    51  40  65 CALM      30.16R
ULM            PTSUNNY   56  42  58 SW9       30.16R
$$

MTZ011-013-016-021-045-047-050-051-261700-
NORTH CENTRAL MONTANA

CITY           SKY/WX    TMP DP  RH WIND       PRES   REMARKS
HAVRE          CLOUDY    56  42  59 SW16      30.09R
LEWISTOWN      CLOUDY    53  39  59 W3        30.15R
N BAR RANCH    PTSUNNY   54  37  54 SW8       30.17R
CHINOOK          N/A     46  43  87 E3        30.09R
DENTON           N/A     58  39  49 W9        30.10R
GEYSER         CLOUDY    56  39  53 W20       30.14R
GRASS RANGE    PTSUNNY   55  39  54 W14G21    30.10R
JUDITH GAP       N/A     50  39  64 S3        30.16R
WINIFRED       PTSUNNY   54  41  61 W10       30.12R
$$

MTZ017>020-022>027-061-062-261700-
NORTHEAST MONTANA

CITY           SKY/WX    TMP DP  RH WIND       PRES   REMARKS
GLASGOW        SUNNY     48  43  82 SE7       30.11R
JORDAN           N/A     47  40  76 SW3       30.12R
SIDNEY         MOSUNNY   49  44  83 CALM      30.14
WOLF POINT     PTSUNNY   45  43  93 CALM      30.14R
MALTA          SUNNY     48  41  76 CALM      30.11R
PLENTYWOOD       N/A     48  45  87 CALM      30.12S
POPLAR           N/A     48  43  81 CALM      30.14R
SCOBEY           N/A     41  36  82 CALM      30.10  VSB 0
$$

MTZ028>42-056>058-261700-
SOUTHCENTRAL AND SOUTHEAST MONTANA

CITY           SKY/WX    TMP DP  RH WIND       PRES   REMARKS
BAKER          CLOUDY    46  42  86 NW5       30.13R
BILLINGS       CLOUDY    52  41  66 SW10      30.16R
LIVINGSTON     CLOUDY    55  38  52 SW14      30.20R
MILES CITY     FOG       40  40 100 SW5       30.15R VSB<1/4
BIG TIMBER     SUNNY     54  37  54 W21       30.20R
EKALAKA          N/A     47  40  76 W5        30.09
HARLOWTON      PTSUNNY   52  41  67 MISG      30.16R
LAUREL           N/A     54  43  66 SW10      30.17S
$$

REGIONAL REPORTS...DAKOTAS

CITY           SKY/WX    TMP DP  RH WIND       PRES   REMARKS
WILLISTON      CLOUDY    50  44  80 NW5       30.13S
MINOT          CLOUDY    50  44  80 CALM      30.12R
DICKINSON      CLOUDY    48  44  86 CALM      30.10R
BEACH          PTSUNNY   46  46 100 N6        30.16R
CROSBY         CLOUDY    48  48 100 CALM      30.13S
TIOGA          CLOUDY    48  48 100 W5        30.13S
WATFORD CITY   PTSUNNY   46  46 100 CALM      30.13R
BISMARCK       CLOUDY    51  45  79 NE6       30.13F
GRAND FORKS    RAIN      50  50 100 NW8       30.08R FOG
FARGO          LGT RAIN  50  50 100 NW13      30.07S
BUFFALO SD       N/A     50  43  77 NW8       30.06R
RAPID CITY     SUNNY     55  39  54 W3        30.14R
$$

REGIONAL REPORTS...WYOMING/IDAHO/WASHINGTON

CITY           SKY/WX    TMP DP  RH WIND       PRES   REMARKS
GILLETTE       MOSUNNY   52  35  52 W12       30.16R
SHERIDAN       SUNNY     52  40  63 CALM      30.17R
BUFFALO WY     CLOUDY    51  30  44 CALM      30.19R
CODY           CLOUDY    50  37  61 CALM      30.21R
IDAHO FALLS    CLOUDY    47  35  63 CALM      30.24R
SALMON         CLOUDY    47  42  83 CALM      30.27R
BOISE          MOSUNNY   56  40  55 E5        30.19R
SPOKANE        MOSUNNY   54  46  74 SE5       30.21R
$$

REGIONAL REPORTS...ALBERTA

CITY           SKY/WX    TMP DP  RH WIND       PRES   REMARKS
EDMONTON       PTSUNNY   55  48  76 W8        30.04R
CALGARY        PTSUNNY   59  41  51 NW12      30.12R
LETHBRIDGE     PTSUNNY   57  39  51 NW15G21   30.10R
MEDICINE HAT   PTSUNNY   55  39  54 SW10      30.07R
$$

REGIONAL REPORTS...SASKATCHEWAN

CITY           SKY/WX    TMP DP  RH WIND       PRES   REMARKS
SWIFT CURRENT  CLOUDY    54  37  54 SW9       30.04R
REGINA         PTSUNNY   50  41  71 S10       30.09S
SASKATOON      CLOUDY    50  39  66 S8        30.01S
$$




USA.gov is the U.S. government's official web portal to all federal, state and local government web resources and services.